Skip Page Navigation
NASA JPL Caltech
NASA Logo - Jet Propulsion Laboratory + View the NASA Portal
+ Center for Near-Earth Object Studies
JPL Home Earth Solar System Stars & Galaxies Technology
JPL Solar System Dynamics
BODIES ORBITS EPHEMERIDES TOOLS PHYSICAL DATA DISCOVERY FAQ SITE MAP
JPL Small-Body Database Browser
Search: [ help ]  
90400 (2003 YS26)
Classification: Main-belt Asteroid          SPK-ID: 2090400
Ephemeris | Orbit Diagram | Orbital Elements | Mission Design | Physical Parameters | Discovery Circumstances ]

[ show orbit diagram ]
Orbital Elements at Epoch 2459000.5 (2020-May-31.0) TDB
Reference: JPL 19 (heliocentric ecliptic J2000)
 Element Value Uncertainty (1-sigma)   Units 
e .09245226667015562 3.5452e-08  
a 2.340805744075423 1.057e-08 au
q 2.12439294720113 8.4972e-08 au
i 6.931080460552992 5.0999e-06 deg
node 339.38922332 2.9924e-05 deg
peri 72.73959064561593 4.1087e-05 deg
M 256.0251550078768 2.9167e-05 deg
tp 2459378.308974025679
(2021-Jun-12.80897403)
0.00010693 TDB
period 1308.116695529081
3.58
8.8603e-06
2.426e-08
d
yr
n .2752048049156611 1.8641e-09 deg/d
Q 2.557218540949716 1.1547e-08 au
  Orbit Determination Parameters
   # obs. used (total)      557  
   data-arc span      8578 days (23.49 yr)  
   first obs. used      1997-02-01  
   last obs. used      2020-07-28  
   planetary ephem.      DE431  
   SB-pert. ephem.      SB431-N16  
   condition code      0  
   norm. resid. RMS      .5431  
   source      ORB  
   producer      Otto Matic  
   solution date      2020-Aug-25 08:12:42  

Additional Information
 Earth MOID = 1.14649 au 
 Jupiter MOID = 2.71474 au 
 T_jup = 3.549 
[ show covariance matrix ]

Ephemeris | Orbit Diagram | Orbital Elements | Mission Design | Physical Parameters | Discovery Circumstances ]

Physical Parameter Table
Parameter Symbol Value Units Sigma Reference Notes
absolute magnitude H 16.2   n/a MPO436404  

90400 (2003 YS26)          Discovered 2003-Dec-18 by Spacewatch at Kitt Peak
Reference: 20040830/Numbers.arcLast Updated: 2004-09-06
Ephemeris | Orbit Diagram | Orbital Elements | Mission Design | Physical Parameters | Discovery Circumstances ]
ABOUT SSD CREDITS/AWARDS PRIVACY/COPYRIGHT GLOSSARY LINKS
FirstGov 2020-Sep-26 06:04 UT
(server date/time)  
NASA Home Page
Site Manager:   Ryan S. Park
Webmaster  Alan B. Chamberlin